Regional Weather Roundup
Issued by NWS

Current Version | Previous Version | Text Only | Print | Product List | Glossary On
Versions: 1 2 3 4 5 6 7 8 9 10 11 12 13 14 15 16 17 18 19 20 21 22 23 24 25 26 27 28 29 30 31 32 33 34 35 36 37 38 39 40 41 42 43 44 45 46 47 48 49 50
000
ASCA42 TJSJ 230011
RWRPR
PUERTO RICO/U.S. VIRGIN ISLANDS HOURLY WEATHER ROUNDUP
NATIONAL WEATHER SERVICE SAN JUAN PR
800 PM AST WED OCT 22 2014

PRZ001-004-230100-
PUERTO RICO

CITY           SKY/WX    TMP DP  RH WIND       PRES   REMARKS
SAN JUAN LMM   PTCLDY    82  73  74 E6        29.94R
CEIBA          PTCLDY    81  73  78 E3        29.96R
$$

PRZ006-007-230100-
U.S. VIRGIN ISLANDS

CITY           SKY/WX    TMP DP  RH WIND       PRES   REMARKS
CHARLOTTE AMA  PTCLDY    81  73  78 E5        29.93
$$

HOURLY WEATHER ROUNDUP FOR THE NEWS MEDIA

CITY           SKY/WX    TMP DP  RH WIND       PRES   REMARKS
MIAMI          LGT RAIN  75  72  90 W3        29.95R
ORLANDO        CLEAR     72  62  71 NE9       29.98R
NEW YORK       LGT RAIN  53  49  86 N23G31    29.76F
NEWARK         RAIN      53  50  89 N18G28    29.80F
CHICAGO        CLEAR     46  37  71 E7        30.27F
HARTFORD       LGT RAIN  56  55  97 NE18G35   29.70F
BOSTON         RAIN      52  50  93 NE32G45   29.85F FOG
DALLAS         MOCLDY    76  56  49 E8        30.08R
PHILADELPHIA   RAIN      54  50  86 N15       29.84F



USA.gov is the U.S. government's official web portal to all federal, state and local government web resources and services.